When you browse on this site, cookies collect data to enhance your experience and personalize the content and advertising you see.
Visit our Privacy Policy to learn more. By continuing to use the site, you agree to this use of cookies and data.
  • En España
  • Lista de países
  • Para 7 días
  • Temperatura del agua
  • Mapa Satelital
  • El tiempo en el mapa
  • Informadores
  • user-avatar
    Iniciar sesión

    Tiempo cada hora Mauritius

    Hoy, 25 Junio, Martes

    Tiempo Temperatura Precipitaciones Viento Presión Humedad
    00:00 +20°C° 0.1 mm 7 mps 725 mmHg 83%
    01:00 +20°C° 0.1 mm 7 mps 725 mmHg 83%
    02:00 +20°C° 0.1 mm 7 mps 725 mmHg 82%
    03:00 +20°C° 0.1 mm 7 mps 724 mmHg 82%
    04:00 +20°C° 0 mm 7 mps 724 mmHg 83%
    05:00 +20°C° 0.1 mm 7 mps 724 mmHg 83%
    06:00 +20°C° 0.1 mm 7 mps 724 mmHg 83%
    07:00 +20°C° 0.1 mm 7 mps 725 mmHg 82%
    08:00 +21°C° 0.1 mm 7 mps 725 mmHg 80%
    09:00 +21°C° 0.1 mm 7 mps 725 mmHg 77%
    10:00 +22°C° 0 mm 7 mps 725 mmHg 75%
    11:00 +23°C° 0.1 mm 7 mps 725 mmHg 74%
    12:00 +23°C° 0.1 mm 7 mps 725 mmHg 73%
    13:00 +23°C° 0.1 mm 7 mps 725 mmHg 72%
    14:00 +23°C° 0.3 mm 7 mps 725 mmHg 75%
    15:00 +22°C° 0.3 mm 7 mps 724 mmHg 77%
    16:00 +22°C° 0.3 mm 7 mps 724 mmHg 79%
    17:00 +22°C° 0.5 mm 7 mps 724 mmHg 80%
    18:00 +21°C° 0.5 mm 7 mps 725 mmHg 82%
    19:00 +21°C° 0.5 mm 7 mps 725 mmHg 83%
    20:00 +21°C° 0.4 mm 7 mps 725 mmHg 83%
    21:00 +21°C° 0.4 mm 7 mps 726 mmHg 84%
    22:00 +21°C° 0.4 mm 7 mps 726 mmHg 84%
    23:00 +21°C° 0.4 mm 6 mps 725 mmHg 84%

    Mañana, 26 Junio, Miércoles

    Tiempo Temperatura Precipitaciones Viento Presión Humedad
    00:00 +21°C° 0.4 mm 6 mps 725 mmHg 84%
    01:00 +21°C° 0.4 mm 6 mps 725 mmHg 83%
    02:00 +21°C° 1.5 mm 5 mps 725 mmHg 85%
    03:00 +20°C° 1.5 mm 5 mps 725 mmHg 86%
    04:00 +20°C° 1.5 mm 5 mps 725 mmHg 87%
    05:00 +20°C° 2.3 mm 4 mps 725 mmHg 88%
    06:00 +20°C° 2.3 mm 3 mps 725 mmHg 90%
    07:00 +20°C° 2.3 mm 2 mps 725 mmHg 91%
    08:00 +20°C° 3.3 mm 2 mps 726 mmHg 92%
    09:00 +20°C° 3.3 mm 2 mps 726 mmHg 93%
    10:00 +20°C° 3.3 mm 2 mps 726 mmHg 94%
    11:00 +20°C° 1.6 mm 3 mps 726 mmHg 92%
    12:00 +20°C° 1.6 mm 4 mps 726 mmHg 91%
    13:00 +21°C° 1.6 mm 5 mps 725 mmHg 89%
    14:00 +21°C° 0.8 mm 5 mps 725 mmHg 90%
    15:00 +21°C° 0.8 mm 6 mps 725 mmHg 90%
    16:00 +21°C° 0.8 mm 6 mps 725 mmHg 90%
    17:00 +21°C° 0.2 mm 6 mps 725 mmHg 90%
    18:00 +21°C° 0.2 mm 7 mps 725 mmHg 91%
    19:00 +21°C° 0.2 mm 7 mps 725 mmHg 91%
    20:00 +21°C° 0.2 mm 7 mps 726 mmHg 91%
    21:00 +21°C° 0.2 mm 7 mps 726 mmHg 90%
    22:00 +21°C° 0.2 mm 7 mps 726 mmHg 90%
    23:00 +21°C° 0.5 mm 7 mps 726 mmHg 90%

    Pasado mañana, 27 Junio, Jueves

    Tiempo Temperatura Precipitaciones Viento Presión Humedad
    00:00 +21°C° 0.5 mm 6 mps 726 mmHg 90%
    01:00 +21°C° 0.5 mm 6 mps 726 mmHg 90%
    02:00 +21°C° 0.4 mm 6 mps 725 mmHg 89%
    03:00 +21°C° 0.4 mm 6 mps 725 mmHg 89%
    04:00 +21°C° 0.4 mm 6 mps 725 mmHg 89%
    05:00 +21°C° 0.4 mm 6 mps 725 mmHg 89%
    06:00 +21°C° 0.4 mm 6 mps 725 mmHg 89%
    07:00 +21°C° 0.4 mm 6 mps 725 mmHg 89%
    08:00 +21°C° 0.1 mm 6 mps 726 mmHg 86%
    09:00 +22°C° 0.1 mm 6 mps 726 mmHg 84%
    10:00 +22°C° 0.1 mm 5 mps 727 mmHg 81%
    11:00 +22°C° 0.1 mm 5 mps 726 mmHg 80%
    12:00 +22°C° 0.1 mm 5 mps 726 mmHg 80%
    13:00 +22°C° 0.1 mm 5 mps 726 mmHg 79%
    14:00 +22°C° 0 mm 6 mps 726 mmHg 79%
    15:00 +22°C° 0 mm 6 mps 726 mmHg 78%
    16:00 +22°C° 0 mm 6 mps 726 mmHg 77%
    17:00 +21°C° 0 mm 6 mps 726 mmHg 79%
    18:00 +21°C° 0 mm 6 mps 726 mmHg 81%
    19:00 +20°C° 0 mm 6 mps 727 mmHg 84%
    20:00 +20°C° 0 mm 6 mps 727 mmHg 83%
    21:00 +20°C° 0 mm 6 mps 727 mmHg 82%
    22:00 +20°C° 0 mm 6 mps 727 mmHg 81%
    23:00 +20°C° 0 mm 6 mps 727 mmHg 81%

    28 Junio, Viernes

    Tiempo Temperatura Precipitaciones Viento Presión Humedad
    00:00 +20°C° 0 mm 6 mps 727 mmHg 80%
    01:00 +20°C° 0 mm 6 mps 727 mmHg 80%
    02:00 +19°C° 0 mm 6 mps 727 mmHg 81%
    03:00 +19°C° 0 mm 6 mps 726 mmHg 82%
    04:00 +19°C° 0 mm 6 mps 726 mmHg 83%
    05:00 +20°C° 0.1 mm 6 mps 726 mmHg 84%
    06:00 +20°C° 0.1 mm 6 mps 727 mmHg 85%
    07:00 +20°C° 0.1 mm 7 mps 727 mmHg 87%
    08:00 +20°C° 0.2 mm 8 mps 727 mmHg 84%
    09:00 +21°C° 0.2 mm 8 mps 728 mmHg 81%
    10:00 +21°C° 0.2 mm 9 mps 728 mmHg 78%
    11:00 +21°C° 0.1 mm 9 mps 728 mmHg 76%
    12:00 +22°C° 0.1 mm 9 mps 728 mmHg 75%
    13:00 +22°C° 0.1 mm 9 mps 727 mmHg 73%
    14:00 +21°C° 0 mm 9 mps 727 mmHg 74%
    15:00 +21°C° 0 mm 9 mps 727 mmHg 75%
    16:00 +21°C° 0 mm 9 mps 727 mmHg 76%
    17:00 +21°C° 0.1 mm 9 mps 727 mmHg 76%
    18:00 +21°C° 0.1 mm 9 mps 728 mmHg 76%
    19:00 +19°C° 0.1 mm 9 mps 728 mmHg 76%
    20:00 +20°C° 0.1 mm 8 mps 728 mmHg 76%
    21:00 +20°C° 0.1 mm 8 mps 728 mmHg 77%
    22:00 +20°C° 0.1 mm 8 mps 728 mmHg 77%
    23:00 +20°C° 0.1 mm 8 mps 728 mmHg 79%

    29 Junio, Sábado

    Tiempo Temperatura Precipitaciones Viento Presión Humedad
    00:00 +20°C° 0.1 mm 8 mps 728 mmHg 82%
    01:00 +20°C° 0.1 mm 7 mps 728 mmHg 84%
    02:00 +20°C° 0.2 mm 8 mps 728 mmHg 83%
    03:00 +20°C° 0.2 mm 8 mps 728 mmHg 83%
    04:00 +20°C° 0.2 mm 8 mps 727 mmHg 83%
    05:00 +19°C° 0.3 mm 9 mps 728 mmHg 83%
    06:00 +19°C° 0.3 mm 9 mps 728 mmHg 83%
    07:00 +19°C° 0.3 mm 9 mps 728 mmHg 82%
    08:00 +19°C° 0.2 mm 9 mps 729 mmHg 82%
    09:00 +19°C° 0.2 mm 9 mps 729 mmHg 81%
    10:00 +19°C° 0.2 mm 9 mps 729 mmHg 80%
    11:00 +19°C° 0.1 mm 9 mps 729 mmHg 78%
    12:00 +21°C° 0.1 mm 9 mps 728 mmHg 77%
    13:00 +21°C° 0.1 mm 9 mps 728 mmHg 75%
    14:00 +19°C° 0.1 mm 9 mps 728 mmHg 76%
    15:00 +20°C° 0.1 mm 8 mps 728 mmHg 77%
    16:00 +20°C° 0.1 mm 8 mps 727 mmHg 78%
    17:00 +18°C° 0 mm 8 mps 728 mmHg 79%
    18:00 +18°C° 0 mm 8 mps 728 mmHg 79%
    19:00 +18°C° 0 mm 7 mps 729 mmHg 80%
    20:00 +18°C° 0 mm 7 mps 729 mmHg 79%
    21:00 +18°C° 0 mm 7 mps 729 mmHg 79%
    22:00 +18°C° 0 mm 7 mps 729 mmHg 78%
    23:00 +17°C° 0 mm 7 mps 729 mmHg 79%

    30 Junio, Domingo

    Tiempo Temperatura Precipitaciones Viento Presión Humedad
    00:00 +17°C° 0 mm 7 mps 728 mmHg 79%
    01:00 +17°C° 0 mm 6 mps 728 mmHg 79%
    02:00 +17°C° 0 mm 6 mps 728 mmHg 80%
    03:00 +17°C° 0 mm 6 mps 728 mmHg 80%
    04:00 +17°C° 0 mm 6 mps 727 mmHg 80%
    05:00 +17°C° 0 mm 6 mps 728 mmHg 80%
    06:00 +17°C° 0 mm 6 mps 728 mmHg 80%
    07:00 +17°C° 0 mm 6 mps 728 mmHg 80%
    08:00 +19°C° 0 mm 6 mps 728 mmHg 76%
    09:00 +19°C° 0 mm 6 mps 728 mmHg 73%
    10:00 +20°C° 0 mm 7 mps 729 mmHg 70%
    11:00 +20°C° 0 mm 6 mps 728 mmHg 67%
    12:00 +20°C° 0 mm 6 mps 728 mmHg 65%
    13:00 +21°C° 0 mm 6 mps 727 mmHg 63%
    14:00 +20°C° 0 mm 6 mps 727 mmHg 63%
    15:00 +20°C° 0 mm 6 mps 727 mmHg 63%
    16:00 +20°C° 0 mm 6 mps 727 mmHg 64%
    17:00 +20°C° 0 mm 5 mps 727 mmHg 68%
    18:00 +19°C° 0 mm 5 mps 727 mmHg 73%
    19:00 +17°C° 0 mm 5 mps 727 mmHg 78%
    20:00 +17°C° 0.1 mm 5 mps 727 mmHg 79%
    21:00 +17°C° 0.1 mm 5 mps 728 mmHg 80%
    22:00 +17°C° 0.1 mm 5 mps 728 mmHg 81%
    23:00 +17°C° 0.1 mm 5 mps 728 mmHg 80%
    Mostrar más